TimeIST,TemperatureF,Dew PointF,Humidity,Sea Level PressureIn,VisibilityMPH,Wind Direction,Wind SpeedMPH,Gust SpeedMPH,PrecipitationIn,Events,Conditions,WindDirDegrees,DateUTC
12:00 AM,47,46,94,30.60,19,SW,4.5,,,,Scattered Clouds,220,2014-05-15 23:00:00
12:00 AM,48.2,46.4,93,30.57,6.2,SW,4.6,-,N/A,,Mostly Cloudy,220,2014-05-15 23:00:00
12:30 AM,48.2,46.4,93,30.57,6.2,SW,3.5,-,N/A,,Mostly Cloudy,230,2014-05-15 23:30:00
1:00 AM,47,47,98,30.58,25,SW,4.5,,,,Scattered Clouds,220,2014-05-16 00:00:00
1:00 AM,48.2,46.4,93,30.57,6.2,SW,3.5,-,N/A,,Mostly Cloudy,220,2014-05-16 00:00:00
1:30 AM,46.4,46.4,100,30.57,6.2,SW,2.3,-,N/A,,Mostly Cloudy,230,2014-05-16 00:30:00
2:00 AM,47,46,97,30.57,25,WSW,4.5,,,,Scattered Clouds,240,2014-05-16 01:00:00
2:00 AM,48.2,46.4,93,30.54,6.2,WSW,3.5,-,N/A,,Mostly Cloudy,240,2014-05-16 01:00:00
2:30 AM,46.4,46.4,100,30.54,6.2,SSW,3.5,-,N/A,Fog,Shallow Fog,200,2014-05-16 01:30:00
3:00 AM,46,45,96,30.56,0,SSW,2.2,,,Fog,Partial Fog,200,2014-05-16 02:00:00
3:00 AM,46.4,44.6,93,30.54,0.3,SSW,2.3,-,N/A,Fog,Fog,200,2014-05-16 02:00:00
3:30 AM,46.4,46.4,100,30.54,0.4,WSW,3.5,-,N/A,Fog,Fog,240,2014-05-16 02:30:00
4:00 AM,48,48,99,30.55,1,SSW,4.5,,,Fog,Light Fog,210,2014-05-16 03:00:00
4:00 AM,48.2,48.2,100,30.54,0.9,SSW,4.6,-,N/A,,Mostly Cloudy,210,2014-05-16 03:00:00
4:30 AM,48.2,48.2,100,30.51,6.2,SW,5.8,-,N/A,,Mostly Cloudy,220,2014-05-16 03:30:00
5:00 AM,49,49,99,30.54,5,SW,6.7,,,,Mist,230,2014-05-16 04:00:00
5:00 AM,50.0,48.2,94,30.51,5.0,SW,6.9,-,N/A,,Mostly Cloudy,230,2014-05-16 04:00:00
5:30 AM,48.2,48.2,100,30.51,6.2,SW,5.8,-,N/A,,Mostly Cloudy,230,2014-05-16 04:30:00
6:00 AM,48,48,99,30.54,12,SW,6.7,,,,Mostly Cloudy,230,2014-05-16 05:00:00
6:00 AM,48.2,48.2,100,30.51,6.2,SW,5.8,-,N/A,,Mostly Cloudy,230,2014-05-16 05:00:00
6:30 AM,48.2,48.2,100,30.51,6.2,SW,6.9,-,N/A,,Mostly Cloudy,230,2014-05-16 05:30:00
7:00 AM,49,49,99,30.53,16,SW,6.7,,,,Partly Cloudy,220,2014-05-16 06:00:00
7:00 AM,50.0,48.2,94,30.51,6.2,SW,5.8,-,N/A,,Mostly Cloudy,220,2014-05-16 06:00:00
7:30 AM,50.0,50.0,100,30.51,6.2,WSW,4.6,-,N/A,,Mostly Cloudy,240,2014-05-16 06:30:00
8:00 AM,51,50,96,30.54,16,WSW,6.7,,,,Mostly Cloudy,250,2014-05-16 07:00:00
8:00 AM,51.8,50.0,94,30.51,6.2,WSW,5.8,-,N/A,,Mostly Cloudy,250,2014-05-16 07:00:00
8:30 AM,51.8,50.0,94,30.51,6.2,WSW,5.8,-,N/A,,Mostly Cloudy,250,2014-05-16 07:30:00
9:00 AM,53,50,85,30.53,22,SSW,6.7,,,,Scattered Clouds,210,2014-05-16 08:00:00
9:00 AM,53.6,50.0,88,30.51,6.2,SSW,5.8,-,N/A,,Mostly Cloudy,210,2014-05-16 08:00:00
9:30 AM,53.6,50.0,88,30.51,6.2,SW,8.1,-,N/A,,Mostly Cloudy,230,2014-05-16 08:30:00
10:00 AM,54,50,80,30.53,28,SW,6.7,,,,Clear,230,2014-05-16 09:00:00
10:00 AM,53.6,50.0,88,30.51,-9999.0,SW,5.8,-,N/A,,Clear,230,2014-05-16 09:00:00
10:30 AM,55.4,48.2,77,30.51,6.2,SW,8.1,-,N/A,,Mostly Cloudy,220,2014-05-16 09:30:00
11:00 AM,58,49,63,30.51,31,WSW,8.9,,,,Scattered Clouds,240,2014-05-16 10:00:00
11:00 AM,57.2,48.2,72,30.51,6.2,WSW,8.1,-,N/A,,Mostly Cloudy,240,2014-05-16 10:00:00
11:30 AM,59.0,48.2,67,30.51,6.2,SW,9.2,-,N/A,,Mostly Cloudy,230,2014-05-16 10:30:00
12:00 PM,60,47,52,30.50,37,SW,8.9,,,,Clear,230,2014-05-16 11:00:00
12:00 PM,59.0,46.4,63,30.48,-9999.0,SW,8.1,-,N/A,,Clear,230,2014-05-16 11:00:00
12:30 PM,60.8,46.4,59,30.48,6.2,SW,9.2,-,N/A,,Overcast,220,2014-05-16 11:30:00
1:00 PM,62,47,47,30.48,37,SW,8.9,,,,Clear,230,2014-05-16 12:00:00
1:00 PM,62.6,46.4,55,30.48,-9999.0,SW,8.1,-,N/A,,Clear,230,2014-05-16 12:00:00
1:30 PM,62.6,46.4,55,30.48,-9999.0,SW,8.1,-,N/A,,Clear,220,2014-05-16 12:30:00
2:00 PM,62,48,49,30.47,44,SW,8.9,,,,Clear,230,2014-05-16 13:00:00
2:00 PM,62.6,48.2,59,30.45,-9999.0,SW,8.1,-,N/A,,Clear,230,2014-05-16 13:00:00
2:30 PM,62.6,51.8,68,30.45,6.2,SSW,10.4,-,N/A,,Mostly Cloudy,210,2014-05-16 13:30:00
3:00 PM,62,49,54,30.46,44,SW,11.2,,,,Scattered Clouds,220,2014-05-16 14:00:00
3:00 PM,62.6,50.0,63,30.45,6.2,SW,10.4,-,N/A,,Mostly Cloudy,230,2014-05-16 14:00:00
3:30 PM,60.8,50.0,68,30.45,-9999.0,SW,11.5,-,N/A,,Clear,220,2014-05-16 14:30:00
4:00 PM,62,49,53,30.45,44,SW,13.4,,,,Clear,230,2014-05-16 15:00:00
4:00 PM,62.6,50.0,63,30.45,-9999.0,SW,12.7,-,N/A,,Clear,230,2014-05-16 15:00:00
4:30 PM,60.8,48.2,63,30.42,-9999.0,SW,11.5,-,N/A,,Clear,220,2014-05-16 15:30:00
5:00 PM,62.6,51.8,68,30.42,-9999.0,SSW,11.5,-,N/A,,Clear,210,2014-05-16 16:00:00
5:30 PM,62.6,50.0,63,30.42,-9999.0,SSW,11.5,-,N/A,,Clear,210,2014-05-16 16:30:00
6:00 PM,61,48,52,30.42,44,SW,11.2,,,,Clear,230,2014-05-16 17:00:00
6:00 PM,60.8,48.2,63,30.42,-9999.0,SW,10.4,-,N/A,,Clear,230,2014-05-16 17:00:00
6:30 PM,60.8,46.4,59,30.42,-9999.0,SW,10.4,-,N/A,,Clear,230,2014-05-16 17:30:00
7:00 PM,60,49,59,30.42,44,SSW,11.2,,,,Clear,210,2014-05-16 18:00:00
7:00 PM,59.0,50.0,72,30.39,-9999.0,SSW,10.4,-,N/A,,Clear,210,2014-05-16 18:00:00
7:30 PM,57.2,50.0,77,30.39,-9999.0,SW,8.1,-,N/A,,Clear,220,2014-05-16 18:30:00
8:00 PM,57,50,70,30.41,37,SW,8.9,,,,Scattered Clouds,220,2014-05-16 19:00:00
8:00 PM,57.2,50.0,77,30.39,6.2,SW,9.2,-,N/A,,Mostly Cloudy,220,2014-05-16 19:00:00
8:30 PM,55.4,42.8,63,30.39,6.2,WSW,10.4,-,N/A,,Mostly Cloudy,250,2014-05-16 19:30:00
9:00 PM,55,41,48,30.41,37,WSW,8.9,,,,Scattered Clouds,250,2014-05-16 20:00:00
9:00 PM,55.4,41.0,58,30.39,6.2,WSW,8.1,-,N/A,,Mostly Cloudy,250,2014-05-16 20:00:00
9:30 PM,55.4,41.0,58,30.42,6.2,WSW,6.9,-,N/A,,Mostly Cloudy,250,2014-05-16 20:30:00
10:00 PM,54,41,51,30.43,31,WSW,6.7,,,,Scattered Clouds,240,2014-05-16 21:00:00
10:00 PM,55.4,41.0,58,30.42,6.2,WSW,6.9,-,N/A,,Mostly Cloudy,240,2014-05-16 21:00:00
10:30 PM,51.8,41.0,67,30.39,6.2,WSW,5.8,-,N/A,,Mostly Cloudy,240,2014-05-16 21:30:00
11:00 PM,53,41,53,30.41,25,WSW,6.7,,,,Scattered Clouds,240,2014-05-16 22:00:00
11:00 PM,53.6,41.0,62,30.39,6.2,WSW,6.9,-,N/A,,Mostly Cloudy,240,2014-05-16 22:00:00
11:30 PM,51.8,41.0,67,30.39,6.2,WSW,8.1,-,N/A,,Scattered Clouds,250,2014-05-16 22:30:00